Location: Norton
(51.3000°N, 0.8167°E)
Time: 01:09:37
(UTC+00:00)

ASTEX 1 - Pass Details

Date: 03 March 2021
Orbit: 720 x 743 km, 92.7° (Epoch: 12 April)

Event Time Altitude Azimuth Distance (km) Brightness Sun altitude
Rises 19:19:16 0° 10° (N) 3,153 6.7 -16.1°
Reaches altitude 10° 19:21:41 10° 17° (NNE) 2,225 5.8 -16.5°
Maximum altitude 19:26:21 43° 89° (E) 1,017 3.7 -17.2°
Enters shadow 19:30:13 14° 157° (SSE) 1,923 5.2 -17.8°
